TimeEST,TemperatureF,Dew PointF,Humidity,Sea Level PressureIn,VisibilityMPH,Wind Direction,Wind SpeedMPH,Gust SpeedMPH,PrecipitationIn,Events,Conditions,WindDirDegrees,DateUTC
12:15 AM,21.9,17.1,82,30.19,10.0,Calm,Calm,-,N/A,,Clear,0,2012-11-07 05:15:00
12:35 AM,22.5,17.2,80,30.18,10.0,Calm,Calm,-,N/A,,Clear,0,2012-11-07 05:35:00
12:55 AM,22.6,17.4,80,30.19,10.0,Calm,Calm,-,N/A,,Clear,0,2012-11-07 05:55:00
1:15 AM,20.7,15.3,80,30.19,10.0,Calm,Calm,-,N/A,,Clear,0,2012-11-07 06:15:00
1:35 AM,21.7,16.5,80,30.19,10.0,West,3.5,-,N/A,,Clear,270,2012-11-07 06:35:00
1:55 AM,21.2,16.2,81,30.19,10.0,Calm,Calm,-,N/A,,Clear,0,2012-11-07 06:55:00
2:15 AM,20.3,15.1,80,30.21,10.0,SW,4.6,-,N/A,,Clear,220,2012-11-07 07:15:00
2:35 AM,19.8,14.7,81,30.21,10.0,SW,4.6,-,N/A,,Clear,220,2012-11-07 07:35:00
2:55 AM,20.1,15.1,81,30.23,10.0,SW,4.6,-,N/A,,Clear,220,2012-11-07 07:55:00
3:15 AM,20.5,15.4,81,30.23,10.0,Calm,Calm,-,N/A,,Clear,0,2012-11-07 08:15:00
3:55 AM,19.8,14.7,81,30.21,10.0,Calm,Calm,-,N/A,,Clear,0,2012-11-07 08:55:00
4:15 AM,19.9,14.7,80,30.21,10.0,Calm,Calm,-,N/A,,Clear,0,2012-11-07 09:15:00
4:35 AM,19.4,14.4,81,30.21,10.0,Calm,Calm,-,N/A,,Clear,0,2012-11-07 09:35:00
8:15 AM,23.0,18.3,82,30.19,7.0,Calm,Calm,-,N/A,,Overcast,0,2012-11-07 13:15:00
8:35 AM,23.9,19.0,82,30.19,7.0,Calm,Calm,-,N/A,,Mostly Cloudy,0,2012-11-07 13:35:00
8:55 AM,24.4,19.8,82,30.18,7.0,NE,3.5,-,N/A,,Clear,40,2012-11-07 13:55:00
9:15 AM,24.8,20.1,82,30.18,10.0,Calm,Calm,-,N/A,,Clear,0,2012-11-07 14:15:00
9:35 AM,27.5,22.5,81,30.18,10.0,NNE,3.5,-,N/A,,Clear,30,2012-11-07 14:35:00
9:55 AM,28.4,22.5,78,30.18,10.0,North,4.6,-,N/A,,Clear,360,2012-11-07 14:55:00
10:15 AM,28.9,21.9,75,30.18,10.0,North,3.5,-,N/A,,Clear,350,2012-11-07 15:15:00
10:35 AM,29.1,21.9,74,30.17,10.0,NW,4.6,-,N/A,,Clear,320,2012-11-07 15:35:00
10:55 AM,30.0,22.6,74,30.15,10.0,NW,5.8,-,N/A,,Clear,320,2012-11-07 15:55:00
11:15 AM,30.6,21.9,70,30.15,10.0,NNW,5.8,-,N/A,,Clear,340,2012-11-07 16:15:00
11:35 AM,30.9,22.1,70,30.14,10.0,WNW,4.6,-,N/A,,Clear,300,2012-11-07 16:35:00
11:55 AM,31.6,22.8,70,30.14,10.0,Calm,Calm,-,N/A,,Clear,0,2012-11-07 16:55:00
12:15 PM,32.2,23.4,70,30.13,10.0,NNW,3.5,-,N/A,,Clear,330,2012-11-07 17:15:00
12:35 PM,33.6,21.9,62,30.12,10.0,North,8.1,-,N/A,,Clear,360,2012-11-07 17:35:00
12:55 PM,34.2,21.0,59,30.11,10.0,North,8.1,-,N/A,,Clear,360,2012-11-07 17:55:00
1:15 PM,34.3,21.2,59,30.11,10.0,North,9.2,-,N/A,,Clear,360,2012-11-07 18:15:00
1:35 PM,34.7,20.5,56,30.10,10.0,North,11.5,-,N/A,,Clear,360,2012-11-07 18:35:00
1:55 PM,34.7,19.6,54,30.09,10.0,North,10.4,-,N/A,,Clear,360,2012-11-07 18:55:00
2:15 PM,34.7,18.0,51,30.09,10.0,North,12.7,-,N/A,,Clear,10,2012-11-07 19:15:00
2:35 PM,35.2,18.5,51,30.09,10.0,NNE,9.2,-,N/A,,Clear,20,2012-11-07 19:35:00
2:55 PM,35.2,18.3,50,30.09,10.0,North,8.1,-,N/A,,Clear,360,2012-11-07 19:55:00
3:15 PM,35.6,18.0,49,30.08,10.0,North,10.4,-,N/A,,Clear,10,2012-11-07 20:15:00
3:35 PM,35.6,18.7,50,30.06,10.0,North,9.2,-,N/A,,Clear,360,2012-11-07 20:35:00
3:55 PM,35.6,18.5,50,30.06,10.0,North,8.1,-,N/A,,Clear,350,2012-11-07 20:55:00
4:15 PM,35.6,19.0,51,30.06,10.0,North,10.4,-,N/A,,Clear,360,2012-11-07 21:15:00
4:35 PM,35.6,19.2,51,30.05,10.0,North,10.4,-,N/A,,Clear,360,2012-11-07 21:35:00
4:55 PM,35.4,18.9,51,30.05,10.0,North,9.2,-,N/A,,Clear,360,2012-11-07 21:55:00
5:15 PM,34.7,18.5,52,30.06,10.0,North,9.2,16.1,N/A,,Clear,10,2012-11-07 22:15:00
5:35 PM,35.1,17.4,49,30.06,10.0,North,10.4,-,N/A,,Clear,10,2012-11-07 22:35:00
5:55 PM,34.9,17.2,49,30.06,10.0,North,12.7,19.6,N/A,,Clear,10,2012-11-07 22:55:00
6:15 PM,34.5,17.4,50,30.06,10.0,North,12.7,-,N/A,,Clear,360,2012-11-07 23:15:00
6:35 PM,34.7,17.8,50,30.06,10.0,North,15.0,20.7,N/A,,Clear,10,2012-11-07 23:35:00
6:55 PM,34.7,17.2,49,30.05,10.0,North,13.8,20.7,N/A,,Clear,10,2012-11-07 23:55:00
7:15 PM,34.7,16.3,47,30.06,10.0,North,15.0,18.4,N/A,,Clear,10,2012-11-08 00:15:00
7:35 PM,34.3,15.8,47,30.05,10.0,North,15.0,-,N/A,,Clear,10,2012-11-08 00:35:00
7:55 PM,34.3,15.3,46,30.05,10.0,North,13.8,-,N/A,,Clear,10,2012-11-08 00:55:00
8:15 PM,34.3,14.9,45,30.04,10.0,North,13.8,20.7,N/A,,Clear,10,2012-11-08 01:15:00
8:35 PM,34.3,14.2,44,30.04,10.0,North,13.8,-,N/A,,Clear,10,2012-11-08 01:35:00
8:55 PM,34.5,14.5,44,30.03,10.0,North,12.7,18.4,N/A,,Clear,350,2012-11-08 01:55:00
9:15 PM,34.2,14.0,44,30.03,10.0,North,12.7,18.4,N/A,,Clear,360,2012-11-08 02:15:00
9:35 PM,34.2,13.8,43,30.03,10.0,North,15.0,20.7,N/A,,Clear,10,2012-11-08 02:35:00
9:55 PM,34.2,14.0,44,30.02,10.0,North,15.0,20.7,N/A,,Clear,10,2012-11-08 02:55:00
10:15 PM,34.0,13.8,44,30.02,10.0,North,16.1,-,N/A,,Clear,10,2012-11-08 03:15:00
10:35 PM,34.0,14.0,44,30.01,10.0,North,13.8,-,N/A,,Clear,360,2012-11-08 03:35:00
10:55 PM,33.8,14.7,46,30.01,10.0,North,10.4,-,N/A,,Clear,360,2012-11-08 03:55:00
11:15 PM,33.8,15.4,47,30.00,10.0,North,13.8,18.4,N/A,,Clear,360,2012-11-08 04:15:00
11:35 PM,33.8,15.6,47,30.00,10.0,North,12.7,18.4,N/A,,Clear,360,2012-11-08 04:35:00
11:55 PM,33.8,16.0,48,30.00,10.0,North,13.8,20.7,N/A,,Clear,10,2012-11-08 04:55:00